Cloud_Cover
0 0 0 0 0 0 0 0 2 73 100 18 98 36 100 85 69 1 0 0 0 1 0 0 0 0 0 0 0 0 0 0
0 0 0 0 0 0 0 0 0 1 11 5 100 100 100 100 5 0 0 3 4 1 0 0 0 0 0 0 0 0 0 0
0 0 0 0 0 0 0 0 0 0 0 0 14 100 98 95 79 1 7 5 5 0 0 0 0 0 0 0 0 0 0 0
0 0 0 0 0 0 0 0 0 0 0 3 1 45 100 96 99 71 0 0 2 2 0 0 0 0 0 0 0 0 0 0
0 0 0 0 0 0 0 0 0 0 0 0 1 98 68 100 100 90 84 5 4 2 0 0 0 0 0 0 0 0 1 1
0 0 0 0 0 0 0 0 0 0 0 0 2 96 61 100 100 81 11 5 0 0 0 0 0 0 0 0 4 2 5 6
0 0 0 0 0 3 5 0 0 0 0 84 100 82 12 40 68 99 6 1 0 0 0 0 0 0 0 0 6 3 5 5
0 0 0 0 0 0 2 4 0 0 0 4 1 54 100 100 68 81 76 0 0 0 0 0 0 0 0 0 0 4 5 0
5 0 4 0 0 0 0 0 0 0 0 0 0 100 100 100 100 100 12 1 0 0 0 0 0 0 0 0 0 3 0 0
6 94 4 96 1 0 0 0 0 1 91 0 0 75 100 100 100 100 100 99 3 0 0 0 0 0 0 0 0 0 0 0
52 58 66 100 100 84 67 0 0 0 5 90 2 97 7 59 100 100 100 99 0 0 0 0 0 0 0 0 0 0 0 0
19 3 34 100 100 56 0 0 0 0 4 92 32 0 2 1 89 100 79 38 0 0 0 0 0 0 0 0 0 0 0 0
44 5 7 51 10 79 47 16 2 1 1 35 99 0 0 0 43 26 33 5 0 0 0 0 0 0 0 12 54 73 25 0
42 70 94 54 4 0 0 0 1 3 4 15 75 33 1 0 0 0 0 2 2 0 0 0 0 0 0 13 0 0 1 0
61 80 26 14 100 3 4 4 20 88 98 100 100 100 65 0 0 0 0 0 0 0 0 0 0 0 0 0 0 0 0 3
100 99 100 98 100 100 100 100 100 100 100 100 100 100 100 5 0 0 0 0 0 0 0 0 0 0 0 0 0 0 0 17
100 83 100 100 100 100 100 100 100 100 100 100 100 100 100 42 82 4 1 0 0 0 0 0 0 0 0 0 0 0 0 0
100 100 100 100 100 100 100 100 100 100 100 100 100 100 100 98 41 9 0 0 0 0 0 0 0 0 0 0 0 0 0 2
100 100 100 100 100 100 100 100 100 100 100 100 100 100 100 99 100 73 5 0 0 0 0 0 0 0 0 0 0 0 0 0